QPF
0.03 0.04 0.04 0.03 0.03 0.03 0.04 0.04 0.04 0.03 0.02 0.03 0.03 0.05 0.07 0.08 0.07 0.06 0.05 0.03 0.02 0.03 0.03 0.02 0.02 0.02 0.02 0.02 0.01 0.02 0.02 0.02 0.02 0.03 0.03 0.02 0.03 0.03 0.04 0.03 0.03 0.03 0.04
0.02 0.02 0.03 0.03 0.02 0.03 0.04 0.04 0.04 0.03 0.02 0.04 0.04 0.05 0.07 0.08 0.05 0.05 0.04 0.03 0.03 0.04 0.03 0.03 0.04 0.04 0.03 0.03 0.03 0.03 0.02 0.03 0.03 0.02 0.02 0.02 0.03 0.03 0.03 0.03 0.03 0.04 0.05
0.02 0.03 0.03 0.02 0.01 0.02 0.03 0.03 0.03 0.03 0.02 0.04 0.05 0.04 0.05 0.06 0.05 0.06 0.04 0.04 0.03 0.03 0.03 0.03 0.04 0.05 0.04 0.03 0.04 0.04 0.05 0.06 0.05 0.03 0.02 0.02 0.02 0.02 0.02 0.02 0.02 0.02 0.03
0.04 0.05 0.02 0.02 0.02 0.03 0.02 0.03 0.03 0.03 0.03 0.04 0.04 0.05 0.04 0.05 0.04 0.04 0.05 0.06 0.06 0.03 0.02 0.04 0.05 0.05 0.05 0.05 0.05 0.06 0.08 0.06 0.05 0.05 0.04 0.03 0.03 0.02 0.03 0.02 0.02 0.02 0.02
0.05 0.04 0.03 0.02 0.03 0.03 0.04 0.04 0.05 0.04 0.03 0.03 0.03 0.04 0.03 0.04 0.07 0.05 0.06 0.07 0.06 0.06 0.03 0.04 0.08 0.06 0.05 0.06 0.07 0.06 0.08 0.06 0.05 0.05 0.04 0.03 0.03 0.02 0.03 0.03 0.03 0.03 0.02
0.03 0.03 0.02 0.02 0.03 0.04 0.04 0.04 0.05 0.04 0.04 0.05 0.05 0.04 0.04 0.06 0.08 0.07 0.07 0.07 0.06 0.05 0.05 0.05 0.05 0.03 0.04 0.05 0.06 0.07 0.08 0.07 0.06 0.05 0.04 0.03 0.03 0.03 0.03 0.02 0.02 0.02 0.03
0.01 0.02 0.02 0.02 0.02 0.04 0.04 0.04 0.04 0.05 0.04 0.05 0.06 0.05 0.04 0.07 0.10 0.09 0.07 0.06 0.04 0.04 0.05 0.05 0.04 0.04 0.03 0.03 0.03 0.05 0.05 0.06 0.07 0.05 0.05 0.05 0.04 0.04 0.03 0.02 0.02 0.02 0.03
0.01 0.01 0.01 0.01 0.02 0.03 0.03 0.03 0.04 0.06 0.07 0.05 0.07 0.07 0.04 0.09 0.09 0.09 0.05 0.04 0.05 0.06 0.05 0.05 0.05 0.04 0.04 0.03 0.02 0.02 0.04 0.04 0.06 0.07 0.07 0.06 0.05 0.05 0.04 0.03 0.03 0.02 0.02
0.01 0.00 0.01 0.01 0.01 0.01 0.02 0.02 0.04 0.05 0.05 0.05 0.06 0.07 0.04 0.03 0.03 0.07 0.03 0.04 0.07 0.07 0.06 0.05 0.06 0.07 0.05 0.03 0.04 0.03 0.03 0.02 0.03 0.04 0.04 0.05 0.05 0.05 0.05 0.04 0.03 0.02 0.02
0.01 0.01 0.01 0.02 0.02 0.02 0.02 0.03 0.04 0.03 0.03 0.03 0.03 0.06 0.06 0.04 0.04 0.04 0.02 0.03 0.05 0.05 0.06 0.06 0.05 0.05 0.07 0.06 0.05 0.04 0.04 0.04 0.02 0.01 0.02 0.03 0.04 0.04 0.04 0.04 0.05 0.05 0.04
0.01 0.02 0.03 0.03 0.03 0.03 0.03 0.03 0.03 0.03 0.03 0.03 0.05 0.05 0.05 0.06 0.06 0.08 0.05 0.03 0.04 0.04 0.05 0.07 0.06 0.05 0.06 0.06 0.06 0.05 0.06 0.07 0.03 0.01 0.02 0.02 0.02 0.02 0.02 0.03 0.05 0.06 0.05
0.02 0.02 0.02 0.02 0.02 0.02 0.03 0.04 0.04 0.04 0.03 0.04 0.04 0.03 0.03 0.05 0.05 0.07 0.05 0.03 0.04 0.05 0.06 0.07 0.07 0.07 0.09 0.08 0.07 0.07 0.07 0.07 0.05 0.03 0.02 0.02 0.02 0.02 0.02 0.02 0.02 0.03 0.04
0.03 0.02 0.02 0.02 0.02 0.03 0.03 0.03 0.04 0.04 0.03 0.04 0.04 0.03 0.03 0.04 0.04 0.04 0.05 0.04 0.03 0.03 0.04 0.07 0.10 0.11 0.13 0.15 0.12 0.10 0.09 0.09 0.07 0.04 0.03 0.03 0.02 0.01 0.01 0.01 0.01 0.01 0.02
0.05 0.03 0.03 0.02 0.02 0.03 0.04 0.03 0.04 0.03 0.02 0.03 0.03 0.03 0.02 0.02 0.02 0.03 0.04 0.05 0.03 0.02 0.03 0.06 0.11 0.12 0.13 0.13 0.12 0.13 0.13 0.13 0.10 0.06 0.04 0.02 0.01 0.01 0.01 0.01 0.02 0.02 0.02
0.04 0.04 0.03 0.03 0.03 0.03 0.03 0.02 0.02 0.02 0.02 0.02 0.03 0.03 0.02 0.01 0.02 0.02 0.03 0.04 0.05 0.03 0.02 0.04 0.09 0.14 0.16 0.15 0.15 0.13 0.12 0.14 0.11 0.06 0.04 0.03 0.02 0.02 0.02 0.01 0.01 0.02 0.02
0.04 0.03 0.03 0.04 0.04 0.04 0.03 0.03 0.03 0.03 0.03 0.02 0.02 0.03 0.02 0.02 0.02 0.02 0.02 0.03 0.03 0.03 0.03 0.02 0.03 0.05 0.07 0.08 0.11 0.08 0.06 0.09 0.10 0.06 0.03 0.04 0.04 0.03 0.02 0.02 0.02 0.02 0.01
0.05 0.03 0.03 0.04 0.04 0.04 0.04 0.05 0.07 0.07 0.06 0.03 0.03 0.04 0.03 0.03 0.02 0.02 0.02 0.03 0.02 0.02 0.02 0.02 0.02 0.02 0.02 0.04 0.07 0.05 0.04 0.05 0.06 0.05 0.03 0.03 0.03 0.02 0.01 0.01 0.01 0.02 0.02
0.04 0.04 0.05 0.04 0.04 0.04 0.04 0.04 0.06 0.08 0.05 0.04 0.05 0.06 0.05 0.04 0.03 0.03 0.03 0.02 0.02 0.02 0.02 0.02 0.02 0.01 0.02 0.03 0.05 0.06 0.04 0.04 0.05 0.04 0.03 0.02 0.01 0.01 0.01 0.01 0.01 0.01 0.01
0.04 0.05 0.06 0.06 0.05 0.05 0.07 0.07 0.07 0.05 0.04 0.05 0.07 0.09 0.07 0.05 0.03 0.03 0.03 0.02 0.02 0.02 0.02 0.01 0.01 0.02 0.03 0.03 0.04 0.05 0.05 0.04 0.04 0.03 0.03 0.02 0.01 0.01 0.01 0.01 0.01 0.01 0.01
0.04 0.05 0.06 0.06 0.07 0.06 0.07 0.09 0.09 0.08 0.07 0.06 0.06 0.06 0.05 0.04 0.02 0.02 0.02 0.02 0.02 0.02 0.03 0.02 0.02 0.03 0.03 0.03 0.04 0.05 0.05 0.04 0.04 0.03 0.02 0.02 0.01 0.02 0.01 0.01 0.01 0.01 0.01
0.06 0.06 0.06 0.06 0.07 0.09 0.09 0.09 0.09 0.08 0.08 0.07 0.07 0.06 0.04 0.03 0.03 0.03 0.03 0.02 0.02 0.02 0.02 0.02 0.02 0.03 0.03 0.03 0.03 0.03 0.04 0.04 0.04 0.02 0.01 0.01 0.01 0.01 0.01 0.01 0.01 0.01 0.01
0.06 0.06 0.06 0.07 0.08 0.10 0.11 0.11 0.11 0.10 0.08 0.08 0.07 0.06 0.04 0.03 0.05 0.05 0.04 0.03 0.03 0.02 0.02 0.03 0.02 0.02 0.01 0.01 0.02 0.03 0.06 0.05 0.04 0.02 0.02 0.01 0.01 0.01 0.01 0.01 0.01 0.01 0.01
0.06 0.07 0.10 0.13 0.16 0.16 0.17 0.17 0.16 0.13 0.12 0.11 0.09 0.07 0.04 0.03 0.04 0.04 0.03 0.02 0.02 0.03 0.03 0.02 0.01 0.01 0.01 0.02 0.03 0.04 0.05 0.05 0.04 0.03 0.02 0.01 0.01 0.01 0.01 0.01 0.01 0.01 0.01
0.08 0.08 0.10 0.12 0.13 0.12 0.12 0.11 0.12 0.10 0.10 0.08 0.07 0.06 0.04 0.03 0.03 0.03 0.03 0.02 0.02 0.01 0.01 0.01 0.01 0.02 0.02 0.03 0.04 0.04 0.04 0.04 0.03 0.03 0.03 0.02 0.02 0.01 0.01 0.01 0.01 0.01 0.01
0.08 0.08 0.08 0.09 0.09 0.10 0.10 0.09 0.08 0.07 0.06 0.05 0.05 0.06 0.06 0.04 0.03 0.04 0.04 0.02 0.02 0.01 0.01 0.01 0.02 0.03 0.02 0.03 0.02 0.02 0.02 0.03 0.03 0.03 0.02 0.02 0.02 0.01 0.01 0.01 0.01 0.01 0.01
0.10 0.09 0.09 0.09 0.09 0.09 0.09 0.07 0.06 0.05 0.04 0.04 0.05 0.05 0.07 0.05 0.04 0.04 0.04 0.02 0.02 0.01 0.01 0.02 0.03 0.01 0.01 0.01 0.01 0.01 0.01 0.02 0.03 0.02 0.02 0.02 0.02 0.02 0.01 0.01 0.01 0.01 0.01
MSLP
1014.22 1014.27 1014.26 1014.21 1014.17 1014.16 1014.20 1014.28 1014.39 1014.51 1014.60 1014.66 1014.67 1014.65 1014.61 1014.58 1014.58 1014.63 1014.73 1014.86 1015.01 1015.16 1015.30 1015.41 1015.49 1015.57 1015.64 1015.74 1015.86 1016.03 1016.23 1016.47 1016.74 1017.02 1017.30 1017.58 1017.85 1018.10 1018.34 1018.55 1018.76 1018.95 1019.13
1013.83 1013.89 1013.90 1013.87 1013.84 1013.84 1013.87 1013.95 1014.07 1014.19 1014.30 1014.38 1014.42 1014.41 1014.38 1014.34 1014.31 1014.32 1014.35 1014.43 1014.54 1014.67 1014.81 1014.93 1015.05 1015.15 1015.24 1015.34 1015.46 1015.60 1015.77 1015.98 1016.23 1016.50 1016.79 1017.08 1017.38 1017.66 1017.93 1018.17 1018.39 1018.60 1018.79
1013.40 1013.48 1013.51 1013.52 1013.53 1013.55 1013.60 1013.68 1013.79 1013.92 1014.03 1014.12 1014.17 1014.17 1014.13 1014.06 1013.99 1013.93 1013.90 1013.92 1013.97 1014.07 1014.19 1014.33 1014.47 1014.60 1014.73 1014.85 1014.96 1015.09 1015.24 1015.42 1015.64 1015.90 1016.19 1016.51 1016.83 1017.15 1017.45 1017.72 1017.97 1018.19 1018.39
1012.96 1013.07 1013.15 1013.21 1013.26 1013.31 1013.37 1013.46 1013.56 1013.67 1013.78 1013.85 1013.89 1013.88 1013.82 1013.72 1013.60 1013.48 1013.38 1013.33 1013.33 1013.38 1013.49 1013.63 1013.79 1013.96 1014.12 1014.25 1014.38 1014.50 1014.64 1014.80 1015.00 1015.24 1015.54 1015.86 1016.21 1016.56 1016.89 1017.19 1017.46 1017.70 1017.92
1012.56 1012.70 1012.82 1012.93 1013.03 1013.11 1013.19 1013.26 1013.34 1013.42 1013.49 1013.54 1013.56 1013.53 1013.45 1013.32 1013.16 1012.98 1012.83 1012.71 1012.66 1012.67 1012.75 1012.89 1013.07 1013.25 1013.43 1013.60 1013.74 1013.86 1013.99 1014.14 1014.32 1014.56 1014.84 1015.17 1015.53 1015.90 1016.26 1016.58 1016.88 1017.13 1017.36
1012.24 1012.39 1012.55 1012.70 1012.83 1012.94 1013.02 1013.07 1013.11 1013.14 1013.16 1013.17 1013.16 1013.11 1013.02 1012.87 1012.69 1012.49 1012.30 1012.13 1012.03 1012.00 1012.05 1012.18 1012.35 1012.54 1012.74 1012.91 1013.06 1013.19 1013.32 1013.45 1013.63 1013.85 1014.14 1014.46 1014.82 1015.20 1015.56 1015.90 1016.20 1016.46 1016.70
1012.02 1012.17 1012.35 1012.53 1012.68 1012.78 1012.84 1012.86 1012.84 1012.82 1012.78 1012.75 1012.71 1012.65 1012.56 1012.43 1012.26 1012.05 1011.84 1011.66 1011.52 1011.45 1011.46 1011.55 1011.69 1011.87 1012.06 1012.23 1012.38 1012.51 1012.63 1012.77 1012.93 1013.15 1013.42 1013.73 1014.08 1014.44 1014.80 1015.12 1015.42 1015.68 1015.92
1011.92 1012.06 1012.23 1012.41 1012.56 1012.64 1012.66 1012.63 1012.55 1012.46 1012.38 1012.31 1012.26 1012.21 1012.14 1012.04 1011.90 1011.72 1011.52 1011.33 1011.16 1011.05 1011.01 1011.05 1011.14 1011.27 1011.43 1011.58 1011.71 1011.83 1011.95 1012.07 1012.23 1012.44 1012.69 1012.98 1013.31 1013.64 1013.97 1014.27 1014.55 1014.79 1015.02
1011.97 1012.07 1012.22 1012.37 1012.49 1012.53 1012.50 1012.41 1012.27 1012.12 1012.00 1011.90 1011.85 1011.82 1011.80 1011.75 1011.67 1011.53 1011.36 1011.17 1010.98 1010.83 1010.72 1010.68 1010.70 1010.77 1010.86 1010.96 1011.06 1011.16 1011.25 1011.37 1011.52 1011.70 1011.93 1012.20 1012.50 1012.79 1013.08 1013.35 1013.59 1013.81 1014.02
1012.15 1012.21 1012.31 1012.42 1012.48 1012.47 1012.39 1012.23 1012.04 1011.85 1011.69 1011.59 1011.55 1011.55 1011.57 1011.59 1011.56 1011.48 1011.34 1011.15 1010.94 1010.74 1010.57 1010.44 1010.37 1010.34 1010.35 1010.39 1010.43 1010.49 1010.56 1010.65 1010.78 1010.95 1011.15 1011.39 1011.65 1011.90 1012.15 1012.37 1012.57 1012.76 1012.95
1012.45 1012.45 1012.50 1012.55 1012.55 1012.48 1012.34 1012.14 1011.90 1011.68 1011.50 1011.40 1011.37 1011.41 1011.48 1011.55 1011.57 1011.53 1011.42 1011.23 1011.00 1010.75 1010.50 1010.29 1010.12 1009.99 1009.91 1009.86 1009.84 1009.85 1009.88 1009.94 1010.04 1010.18 1010.36 1010.56 1010.78 1011.00 1011.21 1011.39 1011.55 1011.71 1011.87
1012.82 1012.78 1012.77 1012.75 1012.69 1012.57 1012.39 1012.15 1011.89 1011.64 1011.46 1011.36 1011.35 1011.40 1011.50 1011.60 1011.66 1011.64 1011.54 1011.35 1011.10 1010.80 1010.49 1010.20 1009.94 1009.72 1009.55 1009.42 1009.32 1009.27 1009.25 1009.27 1009.33 1009.44 1009.59 1009.76 1009.95 1010.13 1010.30 1010.46 1010.59 1010.72 1010.85
1013.21 1013.13 1013.06 1013.00 1012.89 1012.73 1012.52 1012.26 1011.99 1011.74 1011.56 1011.46 1011.44 1011.50 1011.61 1011.71 1011.77 1011.76 1011.65 1011.46 1011.18 1010.86 1010.50 1010.15 1009.83 1009.54 1009.29 1009.09 1008.93 1008.81 1008.73 1008.70 1008.72 1008.79 1008.91 1009.05 1009.21 1009.36 1009.51 1009.64 1009.76 1009.86 1009.97
1013.56 1013.45 1013.35 1013.24 1013.11 1012.93 1012.71 1012.45 1012.19 1011.95 1011.77 1011.66 1011.63 1011.67 1011.75 1011.83 1011.87 1011.84 1011.72 1011.51 1011.23 1010.90 1010.53 1010.16 1009.80 1009.47 1009.18 1008.92 1008.71 1008.53 1008.40 1008.31 1008.28 1008.31 1008.38 1008.49 1008.62 1008.76 1008.89 1009.01 1009.12 1009.21 1009.30
1013.81 1013.68 1013.57 1013.45 1013.31 1013.14 1012.93 1012.70 1012.45 1012.23 1012.05 1011.93 1011.88 1011.88 1011.91 1011.94 1011.94 1011.87 1011.74 1011.53 1011.25 1010.93 1010.59 1010.23 1009.89 1009.55 1009.25 1008.96 1008.70 1008.48 1008.29 1008.15 1008.07 1008.04 1008.07 1008.14 1008.25 1008.37 1008.50 1008.61 1008.72 1008.80 1008.88
1013.92 1013.80 1013.69 1013.59 1013.47 1013.32 1013.15 1012.95 1012.75 1012.55 1012.37 1012.24 1012.15 1012.10 1012.07 1012.03 1011.97 1011.87 1011.72 1011.52 1011.27 1010.99 1010.70 1010.39 1010.09 1009.79 1009.50 1009.21 1008.94 1008.68 1008.44 1008.25 1008.11 1008.03 1008.01 1008.04 1008.12 1008.22 1008.34 1008.46 1008.56 1008.65 1008.72
1013.88 1013.79 1013.71 1013.63 1013.55 1013.45 1013.34 1013.19 1013.03 1012.86 1012.70 1012.55 1012.43 1012.32 1012.22 1012.12 1012.01 1011.88 1011.72 1011.53 1011.32 1011.11 1010.88 1010.65 1010.42 1010.18 1009.93 1009.66 1009.38 1009.11 1008.84 1008.60 1008.40 1008.27 1008.19 1008.18 1008.23 1008.31 1008.42 1008.53 1008.63 1008.71 1008.77
1013.73 1013.66 1013.62 1013.59 1013.56 1013.53 1013.47 1013.39 1013.28 1013.15 1013.00 1012.84 1012.69 1012.54 1012.39 1012.24 1012.08 1011.93 1011.76 1011.60 1011.45 1011.29 1011.15 1011.00 1010.85 1010.68 1010.47 1010.24 1009.98 1009.69 1009.40 1009.12 1008.88 1008.69 1008.57 1008.52 1008.52 1008.58 1008.66 1008.75 1008.84 1008.92 1008.97
1013.49 1013.47 1013.47 1013.49 1013.52 1013.55 1013.56 1013.53 1013.47 1013.38 1013.25 1013.10 1012.93 1012.76 1012.57 1012.39 1012.21 1012.05 1011.89 1011.76 1011.65 1011.56 1011.48 1011.40 1011.32 1011.21 1011.06 1010.86 1010.61 1010.33 1010.03 1009.73 1009.46 1009.23 1009.07 1008.97 1008.94 1008.95 1009.00 1009.07 1009.14 1009.19 1009.22
1013.24 1013.25 1013.29 1013.36 1013.44 1013.53 1013.59 1013.61 1013.60 1013.54 1013.43 1013.30 1013.14 1012.95 1012.76 1012.58 1012.40 1012.23 1012.09 1011.99 1011.91 1011.86 1011.83 1011.81 1011.77 1011.71 1011.59 1011.43 1011.20 1010.94 1010.64 1010.33 1010.05 1009.80 1009.60 1009.47 1009.39 1009.37 1009.38 1009.40 1009.43 1009.45 1009.45
1012.99 1013.03 1013.11 1013.22 1013.34 1013.46 1013.56 1013.61 1013.63 1013.60 1013.52 1013.41 1013.27 1013.11 1012.93 1012.76 1012.60 1012.45 1012.34 1012.25 1012.19 1012.16 1012.16 1012.15 1012.14 1012.09 1012.00 1011.86 1011.66 1011.41 1011.14 1010.84 1010.56 1010.31 1010.10 1009.95 1009.84 1009.77 1009.73 1009.71 1009.69 1009.66 1009.62
1012.78 1012.85 1012.96 1013.09 1013.22 1013.35 1013.46 1013.53 1013.55 1013.54 1013.48 1013.40 1013.29 1013.16 1013.03 1012.90 1012.77 1012.65 1012.56 1012.48 1012.43 1012.41 1012.40 1012.39 1012.37 1012.32 1012.24 1012.11 1011.94 1011.72 1011.48 1011.22 1010.97 1010.73 1010.53 1010.36 1010.23 1010.12 1010.04 1009.96 1009.89 1009.81 1009.72
1012.59 1012.69 1012.81 1012.94 1013.08 1013.19 1013.28 1013.33 1013.35 1013.33 1013.29 1013.23 1013.16 1013.08 1013.00 1012.92 1012.84 1012.76 1012.69 1012.63 1012.58 1012.54 1012.50 1012.47 1012.43 1012.37 1012.29 1012.18 1012.03 1011.85 1011.65 1011.44 1011.24 1011.04 1010.86 1010.70 1010.56 1010.43 1010.30 1010.18 1010.05 1009.91 1009.78
1012.41 1012.52 1012.65 1012.78 1012.89 1012.97 1013.01 1013.02 1013.01 1012.97 1012.93 1012.89 1012.86 1012.83 1012.80 1012.78 1012.75 1012.71 1012.67 1012.62 1012.57 1012.51 1012.45 1012.39 1012.33 1012.26 1012.17 1012.07 1011.96 1011.83 1011.68 1011.54 1011.39 1011.24 1011.10 1010.97 1010.83 1010.69 1010.54 1010.38 1010.21 1010.03 1009.85
1012.19 1012.33 1012.46 1012.56 1012.63 1012.66 1012.65 1012.60 1012.54 1012.48 1012.42 1012.39 1012.38 1012.39 1012.42 1012.45 1012.47 1012.48 1012.47 1012.44 1012.39 1012.32 1012.25 1012.17 1012.09 1012.01 1011.93 1011.86 1011.78 1011.70 1011.62 1011.54 1011.45 1011.37 1011.27 1011.17 1011.06 1010.93 1010.78 1010.61 1010.41 1010.21 1009.99
1011.92 1012.08 1012.21 1012.29 1012.32 1012.29 1012.21 1012.10 1011.98 1011.88 1011.80 1011.77 1011.77 1011.82 1011.88 1011.96 1012.03 1012.08 1012.10 1012.09 1012.06 1011.99 1011.92 1011.84 1011.76 1011.69 1011.63 1011.59 1011.55 1011.52 1011.50 1011.49 1011.46 1011.44 1011.40 1011.34 1011.26 1011.16 1011.03 1010.86 1010.67 1010.46 1010.24
Thickness
5766 5766 5765 5764 5764 5763 5763 5762 5762 5763 5763 5763 5763 5762 5761 5761 5760 5759 5758 5757 5756 5754 5753 5751 5750 5748 5747 5745 5744 5742 5741 5739 5737 5735 5734 5733 5731 5730 5728 5727 5725 5724 5722
5768 5767 5766 5765 5765 5764 5764 5764 5764 5764 5764 5764 5764 5763 5763 5763 5761 5760 5759 5758 5757 5755 5754 5752 5750 5749 5748 5746 5745 5743 5742 5740 5738 5737 5735 5734 5732 5730 5729 5727 5725 5724 5723
5770 5768 5767 5766 5766 5766 5766 5765 5764 5764 5764 5764 5763 5764 5764 5763 5762 5761 5760 5759 5758 5757 5755 5753 5752 5750 5749 5748 5746 5744 5743 5741 5740 5738 5736 5734 5733 5731 5730 5728 5726 5725 5723
5770 5769 5769 5768 5768 5767 5767 5765 5764 5763 5763 5763 5762 5764 5765 5764 5764 5762 5761 5760 5759 5757 5756 5755 5753 5752 5750 5749 5748 5746 5744 5743 5741 5739 5737 5736 5734 5732 5731 5729 5727 5725 5724
5771 5770 5770 5770 5769 5768 5767 5766 5764 5763 5761 5761 5762 5763 5764 5764 5764 5764 5762 5761 5760 5758 5757 5756 5754 5753 5752 5750 5749 5748 5746 5744 5742 5741 5739 5737 5736 5734 5732 5730 5728 5727 5725
5773 5772 5771 5770 5769 5767 5766 5765 5763 5763 5761 5760 5761 5761 5762 5763 5764 5763 5763 5762 5761 5759 5758 5757 5756 5754 5753 5752 5750 5749 5747 5746 5744 5742 5741 5739 5737 5735 5733 5731 5729 5728 5726
5774 5773 5772 5771 5769 5767 5765 5765 5763 5761 5759 5760 5756 5754 5758 5761 5762 5762 5762 5761 5761 5760 5759 5757 5756 5755 5754 5753 5751 5750 5748 5747 5746 5744 5742 5740 5738 5736 5734 5732 5730 5729 5727
5775 5774 5772 5771 5769 5767 5765 5764 5762 5758 5757 5758 5753 5747 5744 5749 5756 5762 5761 5760 5760 5760 5758 5757 5756 5754 5753 5753 5752 5750 5749 5748 5746 5744 5743 5741 5739 5737 5735 5733 5731 5729 5728
5775 5774 5773 5771 5770 5767 5764 5763 5762 5758 5754 5756 5756 5749 5741 5738 5745 5753 5757 5759 5759 5758 5758 5757 5756 5754 5753 5752 5751 5751 5749 5748 5746 5744 5742 5741 5739 5737 5735 5733 5731 5729 5727
5774 5774 5773 5772 5770 5767 5765 5764 5762 5760 5756 5753 5754 5754 5751 5748 5742 5741 5750 5755 5757 5757 5757 5757 5756 5754 5753 5751 5750 5750 5748 5747 5745 5743 5741 5739 5737 5735 5734 5732 5730 5728 5726
5773 5772 5772 5770 5769 5767 5765 5764 5762 5760 5758 5755 5752 5752 5750 5749 5747 5741 5739 5746 5751 5755 5757 5757 5756 5754 5753 5751 5750 5749 5747 5745 5744 5742 5740 5737 5736 5734 5732 5730 5729 5727 5726
5770 5771 5771 5770 5768 5767 5765 5764 5762 5760 5758 5756 5754 5752 5749 5746 5744 5742 5738 5740 5742 5748 5754 5755 5754 5753 5752 5750 5749 5748 5746 5744 5743 5740 5738 5735 5733 5732 5730 5728 5726 5725 5723
5768 5769 5770 5768 5767 5766 5765 5763 5761 5759 5758 5755 5753 5752 5751 5749 5748 5744 5740 5738 5738 5743 5748 5750 5752 5751 5751 5750 5749 5747 5745 5743 5741 5739 5736 5733 5731 5730 5728 5726 5724 5722 5720
5769 5770 5769 5768 5767 5766 5765 5762 5760 5758 5757 5755 5754 5752 5750 5750 5748 5746 5741 5737 5733 5734 5739 5742 5747 5748 5748 5747 5746 5744 5742 5740 5738 5736 5734 5731 5729 5727 5724 5722 5721 5719 5717
5769 5769 5768 5767 5766 5765 5763 5761 5758 5756 5755 5753 5752 5751 5749 5748 5747 5746 5743 5739 5732 5726 5728 5736 5739 5743 5744 5743 5742 5740 5738 5736 5734 5732 5730 5728 5726 5723 5721 5719 5717 5715 5713
5767 5766 5765 5764 5763 5762 5760 5758 5755 5754 5751 5750 5749 5748 5746 5745 5745 5744 5742 5739 5736 5730 5726 5731 5734 5738 5738 5738 5737 5735 5734 5733 5731 5729 5726 5725 5722 5720 5718 5716 5714 5711 5709
5764 5763 5762 5761 5760 5758 5757 5754 5752 5750 5748 5746 5746 5744 5742 5742 5740 5739 5738 5736 5733 5730 5725 5728 5731 5732 5732 5731 5731 5730 5728 5727 5726 5724 5722 5720 5719 5716 5714 5712 5709 5707 5704
5761 5760 5759 5757 5756 5755 5753 5751 5748 5747 5744 5742 5741 5740 5738 5738 5736 5735 5733 5731 5729 5728 5724 5722 5724 5725 5725 5726 5725 5723 5722 5722 5721 5719 5717 5715 5714 5711 5709 5706 5704 5701 5699
5757 5756 5755 5753 5752 5751 5749 5748 5746 5744 5742 5740 5738 5736 5734 5733 5731 5730 5728 5727 5725 5725 5722 5719 5718 5719 5719 5720 5718 5716 5716 5715 5714 5713 5711 5709 5707 5705 5703 5700 5698 5695 5693
5753 5751 5750 5750 5749 5748 5746 5745 5743 5741 5739 5737 5736 5733 5732 5730 5728 5726 5724 5722 5720 5718 5716 5713 5711 5711 5711 5712 5710 5707 5706 5706 5706 5706 5704 5703 5701 5699 5697 5694 5692 5689 5686
5749 5747 5745 5745 5745 5744 5743 5741 5739 5737 5734 5732 5731 5729 5728 5728 5726 5724 5722 5718 5715 5712 5709 5707 5705 5704 5703 5702 5701 5701 5698 5697 5698 5698 5696 5695 5694 5692 5690 5688 5685 5682 5680
5743 5741 5739 5738 5738 5739 5738 5736 5734 5732 5729 5726 5724 5723 5723 5722 5721 5720 5718 5716 5713 5708 5704 5701 5699 5697 5698 5698 5697 5695 5692 5688 5687 5691 5688 5687 5686 5684 5683 5681 5679 5676 5674
5736 5734 5733 5732 5731 5731 5731 5730 5729 5726 5724 5721 5719 5717 5717 5717 5715 5713 5711 5710 5708 5707 5705 5700 5696 5694 5693 5693 5691 5688 5686 5683 5682 5684 5681 5678 5678 5676 5677 5675 5673 5670 5667
5728 5727 5726 5725 5724 5723 5723 5722 5722 5720 5718 5717 5715 5713 5711 5710 5709 5707 5704 5701 5700 5699 5698 5697 5695 5693 5692 5690 5687 5684 5681 5678 5677 5676 5675 5670 5670 5669 5670 5668 5666 5663 5661
5721 5720 5719 5717 5716 5716 5716 5715 5714 5711 5709 5709 5708 5707 5706 5704 5703 5701 5696 5693 5691 5691 5692 5691 5689 5687 5686 5684 5681 5676 5672 5668 5666 5666 5667 5664 5662 5660 5660 5659 5658 5656 5653
5713 5711 5710 5709 5708 5707 5708 5707 5705 5703 5700 5700 5700 5700 5700 5698 5697 5693 5689 5686 5683 5683 5682 5681 5679 5678 5677 5676 5674 5671 5667 5662 5659 5658 5659 5656 5654 5651 5649 5650 5649 5648 5646